Weather History for Bentonville, AR

Change the Weather History Date:

Tuesday, February 26, 2013

  Actual Average Record
Temperature  
Mean Temperature 34 °F -  
Max Temperature 35 °F 52 °F 72 °F (1961)
Min Temperature 32 °F 30 °F 2 °F (1960)
Degree Days  
Heating Degree Days 32    
Moisture  
Dew Point 29 °F    
Average Humidity 83    
Maximum Humidity 87    
Minimum Humidity 81    
Precipitation  
Precipitation 0.07 in - - ()
Sea Level Pressure  
Sea Level Pressure 29.57 in    
Wind  
Wind Speed 10 mph (NW)    
Max Wind Speed 17 mph    
Max Gust Speed 28 mph    
Visibility 6 miles    
Events      
Averages and records for this station are not official NWS values.
T = Trace of Precipitation, MM = Missing Value Source: NWS Daily Summary

Daily Weather History Graph

Daily Weather History Graph

Search for Another Location

Airport:

Trip Planner

Search our weather history database for the weather conditions in past years. The results will help you decide how hot, cold, wet, or windy it might be!

Date:

Astronomy

Feb. 26, 2013 Rise Set
Actual Time 6:50 AM CST 6:09 PM CST
Civil Twilight 6:24 AM CST 6:34 PM CST
Nautical Twilight 5:55 AM CST 7:04 PM CST
Astronomical Twilight 5:25 AM CST 7:34 PM CST
Moon 7:22 PM CST (2/26) 6:56 AM CST (2/26)
Length of Visible Light 12h 09m
Length of Day
11h 18m
Full, 99% of the Moon is Illuminated
Feb 26
Full
Mar 4
Last Quarter
Mar 11
New
Mar 19
First Quarter
Mar 27
Full

Hourly Weather History & Observations

Time (CST) Temp. Windchill Dew Point Humidity Pressure Visibility Wind Dir Wind Speed Gust Speed Precip Events Conditions
12:15 AM 35.6 °F 30.7 °F 32.0 °F 87% 29.40 in 10.0 mi NNE 5.8 mph - N/A   Overcast
12:35 AM 35.6 °F 29.2 °F 32.0 °F 87% 29.39 in 9.0 mi NNE 8.1 mph - N/A   Overcast
12:55 AM 35.6 °F 30.7 °F 32.0 °F 87% 29.38 in 7.0 mi NNE 5.8 mph - N/A   Overcast
1:15 AM 35.6 °F 29.2 °F 30.2 °F 81% 29.38 in 7.0 mi North 8.1 mph - N/A   Overcast
1:35 AM 35.6 °F 29.9 °F 30.2 °F 81% 29.38 in 5.0 mi North 6.9 mph - N/A   Overcast
1:55 AM 33.8 °F 27.0 °F 30.2 °F 87% 29.37 in 5.0 mi North 8.1 mph - N/A   Overcast
2:15 AM 33.8 °F 25.8 °F 30.2 °F 87% 29.37 in 5.0 mi North 10.4 mph - N/A   Overcast
2:35 AM 33.8 °F 27.0 °F 30.2 °F 87% 29.37 in 5.0 mi North 8.1 mph - N/A   Overcast
2:55 AM 33.8 °F 27.0 °F 30.2 °F 87% 29.36 in 5.0 mi North 8.1 mph - N/A   Overcast
3:15 AM 33.8 °F 25.8 °F 30.2 °F 87% 29.36 in 5.0 mi North 10.4 mph - N/A   Overcast
3:35 AM 33.8 °F 27.7 °F 30.2 °F 87% 29.36 in 8.0 mi North 6.9 mph - N/A   Overcast
3:55 AM 33.8 °F 27.0 °F 30.2 °F 87% 29.36 in 2.5 mi NNW 8.1 mph - N/A   Overcast
4:15 AM 33.8 °F 26.4 °F 30.2 °F 87% 29.36 in 1.8 mi NNW 9.2 mph - 0.01 in   Overcast
4:35 AM 33.8 °F 27.0 °F 30.2 °F 87% 29.35 in 3.0 mi NNW 8.1 mph - 0.01 in   Overcast
4:55 AM 33.8 °F 27.0 °F 30.2 °F 87% 29.36 in 7.0 mi NNW 8.1 mph 18.4 mph 0.01 in   Overcast
5:15 AM 33.8 °F 26.4 °F 30.2 °F 87% 29.37 in 4.0 mi NNW 9.2 mph - N/A   Overcast
5:35 AM 33.8 °F 26.4 °F 30.2 °F 87% 29.38 in 10.0 mi NNW 9.2 mph 17.3 mph N/A   Overcast
5:55 AM 33.8 °F 24.3 °F 28.4 °F 81% 29.39 in 8.0 mi NW 13.8 mph 18.4 mph N/A   Overcast
6:15 AM 33.8 °F 25.3 °F 28.4 °F 81% 29.40 in 4.0 mi NNW 11.5 mph 17.3 mph N/A   Overcast
6:35 AM 33.8 °F 25.3 °F 28.4 °F 81% 29.41 in 4.0 mi NW 11.5 mph 16.1 mph N/A   Overcast
6:55 AM 33.8 °F 25.3 °F 28.4 °F 81% 29.41 in 1.8 mi NW 11.5 mph 16.1 mph N/A   Overcast
7:15 AM 32.0 °F 22.5 °F 28.4 °F 87% 29.42 in 1.0 mi NW 12.7 mph - 0.01 in   Overcast
7:35 AM 32.0 °F 22.1 °F 28.4 °F 87% 29.42 in 1.0 mi NNW 13.8 mph 19.6 mph 0.02 in   Overcast
7:55 AM 33.8 °F 25.8 °F 28.4 °F 81% 29.44 in 1.2 mi NW 10.4 mph 19.6 mph 0.02 in   Overcast
8:15 AM 33.8 °F 24.3 °F 28.4 °F 81% 29.46 in 1.2 mi NW 13.8 mph 21.9 mph 0.01 in   Overcast
8:35 AM 33.8 °F 24.8 °F 28.4 °F 81% 29.47 in 10.0 mi NW 12.7 mph 18.4 mph 0.02 in   Overcast
8:55 AM 33.8 °F 24.8 °F 28.4 °F 81% 29.48 in 10.0 mi NW 12.7 mph 19.6 mph 0.04 in   Overcast
9:15 AM 33.8 °F 24.3 °F 28.4 °F 81% 29.48 in 10.0 mi NW 13.8 mph 20.7 mph N/A   Overcast
9:35 AM 33.8 °F 23.9 °F 28.4 °F 81% 29.50 in 10.0 mi NW 15.0 mph 25.3 mph N/A   Overcast
9:55 AM 33.8 °F 23.9 °F 28.4 °F 81% 29.52 in 10.0 mi NW 15.0 mph 20.7 mph N/A   Overcast
10:15 AM 33.8 °F 23.9 °F 28.4 °F 81% 29.53 in 10.0 mi NW 15.0 mph 21.9 mph N/A   Overcast
10:35 AM 33.8 °F 24.3 °F 28.4 °F 81% 29.54 in 10.0 mi NW 13.8 mph 27.6 mph N/A   Overcast
10:55 AM 33.8 °F 25.3 °F 28.4 °F 81% 29.55 in 10.0 mi NW 11.5 mph 20.7 mph N/A   Overcast
11:15 AM 33.8 °F 24.8 °F 28.4 °F 81% 29.56 in 10.0 mi NW 12.7 mph 19.6 mph N/A   Overcast
11:35 AM 33.8 °F 25.8 °F 28.4 °F 81% 29.57 in 10.0 mi NW 10.4 mph 17.3 mph N/A   Overcast
12:15 PM 33.8 °F 24.3 °F 28.4 °F 81% 29.59 in 10.0 mi NW 13.8 mph 19.6 mph N/A   Overcast
12:35 PM 33.8 °F 24.3 °F 28.4 °F 81% 29.60 in 10.0 mi WNW 13.8 mph 18.4 mph N/A   Overcast
12:55 PM 33.8 °F 24.3 °F 28.4 °F 81% 29.60 in 9.0 mi WNW 13.8 mph 21.9 mph N/A   Overcast
1:15 PM 33.8 °F 24.8 °F 28.4 °F 81% 29.60 in 10.0 mi NW 12.7 mph 23.0 mph N/A   Overcast
1:35 PM 33.8 °F 23.9 °F 28.4 °F 81% 29.61 in 10.0 mi WNW 15.0 mph 20.7 mph N/A   Overcast
1:55 PM 33.8 °F 24.8 °F 28.4 °F 81% 29.62 in 8.0 mi WNW 12.7 mph 18.4 mph N/A   Overcast
2:15 PM 33.8 °F 23.9 °F 28.4 °F 81% 29.63 in 7.0 mi WNW 15.0 mph - N/A   Overcast
2:35 PM 33.8 °F 23.5 °F 28.4 °F 81% 29.64 in 7.0 mi WNW 16.1 mph 20.7 mph N/A   Overcast
2:55 PM 33.8 °F 23.9 °F 28.4 °F 81% 29.64 in 7.0 mi NW 15.0 mph 25.3 mph N/A   Overcast
3:15 PM 33.8 °F 23.2 °F 28.4 °F 81% 29.65 in 7.0 mi NW 17.3 mph 21.9 mph N/A   Overcast
3:35 PM 33.8 °F 25.3 °F 28.4 °F 81% 29.66 in 7.0 mi NW 11.5 mph 18.4 mph N/A   Overcast
3:55 PM 33.8 °F 24.3 °F 28.4 °F 81% 29.67 in 7.0 mi NW 13.8 mph - N/A   Overcast
4:15 PM 33.8 °F 25.3 °F 28.4 °F 81% 29.68 in 8.0 mi WNW 11.5 mph 17.3 mph N/A   Overcast
4:35 PM 33.8 °F 25.8 °F 28.4 °F 81% 29.69 in 7.0 mi WNW 10.4 mph - N/A   Overcast
4:55 PM 33.8 °F 25.3 °F 28.4 °F 81% 29.70 in 7.0 mi WNW 11.5 mph 18.4 mph N/A   Overcast
5:15 PM 33.8 °F 23.9 °F 28.4 °F 81% 29.72 in 6.0 mi WNW 15.0 mph - N/A   Overcast
5:35 PM 33.8 °F 25.8 °F 28.4 °F 81% 29.73 in 6.0 mi WNW 10.4 mph - N/A   Overcast
5:55 PM 33.8 °F 24.3 °F 28.4 °F 81% 29.74 in 5.0 mi WNW 13.8 mph 17.3 mph N/A   Overcast
6:15 PM 33.8 °F 24.8 °F 28.4 °F 81% 29.75 in 5.0 mi WNW 12.7 mph - N/A   Overcast
6:35 PM 33.8 °F 25.8 °F 28.4 °F 81% 29.76 in 5.0 mi WNW 10.4 mph - N/A   Overcast
6:55 PM 33.8 °F 25.8 °F 30.2 °F 87% 29.76 in 4.0 mi WNW 10.4 mph - N/A   Overcast
7:15 PM 33.8 °F 25.8 °F 28.4 °F 81% 29.76 in 4.0 mi WNW 10.4 mph 19.6 mph N/A   Overcast
7:35 PM 33.8 °F 24.8 °F 28.4 °F 81% 29.78 in 5.0 mi NW 12.7 mph 17.3 mph N/A   Overcast
7:55 PM 33.8 °F 25.3 °F 28.4 °F 81% 29.78 in 4.0 mi NW 11.5 mph - N/A   Overcast
8:15 PM 33.8 °F 24.8 °F 28.4 °F 81% 29.79 in 5.0 mi WNW 12.7 mph - N/A   Overcast
8:35 PM 33.8 °F 25.8 °F 30.2 °F 87% 29.80 in 5.0 mi WNW 10.4 mph 17.3 mph N/A   Overcast
8:55 PM 33.8 °F 24.8 °F 28.4 °F 81% 29.81 in 4.0 mi NW 12.7 mph 17.3 mph N/A   Overcast
9:15 PM 33.8 °F 24.8 °F 30.2 °F 87% 29.82 in 5.0 mi NW 12.7 mph - N/A   Overcast
9:35 PM 33.8 °F 24.8 °F 30.2 °F 87% 29.83 in 5.0 mi WNW 12.7 mph - N/A   Overcast
9:55 PM 33.8 °F 23.9 °F 28.4 °F 81% 29.84 in 6.0 mi WNW 15.0 mph 18.4 mph N/A   Overcast
10:15 PM 33.8 °F 24.8 °F 28.4 °F 81% 29.85 in 6.0 mi West 12.7 mph 20.7 mph N/A   Overcast
10:55 PM 33.8 °F 24.8 °F 28.4 °F 81% 29.83 in 6.0 mi WNW 12.7 mph - N/A   Overcast
11:15 PM 33.8 °F 27.0 °F 28.4 °F 81% 29.81 in 7.0 mi NNW 8.1 mph - N/A   Overcast
11:35 PM 33.8 °F 28.6 °F 28.4 °F 81% 29.81 in 6.0 mi NW 5.8 mph - N/A   Overcast
11:55 PM 33.8 °F 26.4 °F 28.4 °F 81% 29.84 in 6.0 mi WNW 9.2 mph - N/A   Overcast